Terminal Aerodrome Forecast
Issued by NWS

Home | Current Version | Previous Version | Graphics & Text | Print | Product List | Glossary On
Versions: 1 2 3 4 5 6 7 8 9 10 11 12 13 14 15 16 17
000
FTUS43 KTOP 280500
TAFFOE
TAF
KFOE 280520Z 2806/2906 10009KT P6SM FEW080 BKN130
     FM280900 12008KT P6SM VCTS BKN080CB
     FM281300 14008KT P6SM FEW060 BKN120=

USA.gov is the U.S. government's official web portal to all federal, state and local government web resources and services.